Location: Saint-Hippolyte
(43.6394°N, 4.7559°E)
Time: 13:43:35
(UTC+00:00)

CZ-4 R/B - Pass Details

Date: 24 October 2020
Orbit: 531 x 598 km, 97.7° (Epoch: 24 November)

Event Time Altitude Azimuth Distance (km) Brightness Sun altitude
Rises 18:56:20 0° 192° (SSW) 2,720 4.9 -24.8°
Reaches altitude 10° 18:58:43 10° 205° (SSW) 1,820 4.1 -25.2°
Maximum altitude 19:02:04 27° 264° (W) 1,076 3.4 -25.8°
Drops below altitude 10° 19:05:24 10° 323° (NW) 1,807 4.5 -26.4°
Sets 19:07:46 0° 336° (NNW) 2,696 5.3 -26.8°
